Location: D�rnast
(49.6426°N, 11.9755°E)
Time: 01:37:13
(UTC+00:00)

Envisat - Visible Passes

Search period start: 08 December 2021 00:00
Search period end: 18 December 2021 00:00
Orbit: 764 x 766 km, 98.2° (Epoch: 07 December)

Date Brightness Start Highest point End Pass type
(mag) Time Alt. Az. Time Alt. Az. Time Alt. Az.
08 Dec 5.5 03:05:20 10° NE 03:08:56 19° E 03:12:32 10° SE visible
08 Dec 2.9 04:43:24 10° N 04:48:27 67° WNW 04:53:30 10° SSW visible
08 Dec 4.9 16:02:54 10° SSW 16:07:28 33° W 16:12:05 10° NNW visible
09 Dec 3.4 04:06:31 10° NNE 04:11:35 62° ESE 04:16:36 10° S visible
09 Dec 4.1 05:46:17 10° N 05:50:12 23° WNW 05:54:06 10° WSW visible
10 Dec 4.7 03:30:01 10° NNE 03:34:31 31° E 03:38:59 10° SSE visible
10 Dec 3.3 05:08:53 10° N 05:13:39 42° WNW 05:18:24 10° SW visible
10 Dec 5.7 16:29:14 10° SW 16:33:01 21° W 16:36:50 10° NW visible
11 Dec 5.7 02:54:15 10° NE 02:57:14 15° E 03:00:13 10° ESE visible
11 Dec 2.8 04:31:48 10° NNE 04:36:55 82° WNW 04:42:00 10° SSW visible
11 Dec 4.5 06:12:19 10° NNW 06:15:11 15° NW 06:18:01 10° W visible
11 Dec 4.5 15:51:04 10° SSW 15:55:50 41° W 16:00:40 10° NNW visible
12 Dec 3.8 03:55:01 10° NNE 03:59:59 50° E 04:04:54 10° S visible
12 Dec 3.8 05:34:31 10° N 05:38:46 27° WNW 05:42:59 10° WSW visible
12 Dec 6.1 16:56:30 10° WSW 16:58:41 13° W 17:00:52 10° WNW visible
13 Dec 5.1 03:18:40 10° NE 03:22:51 25° E 03:27:01 10° SSE visible
13 Dec 3.1 04:57:13 10° N 05:02:09 51° WNW 05:07:03 10° SW visible
13 Dec 5.4 16:17:09 10° SSW 16:21:21 26° W 16:25:34 10° NW visible
14 Dec 5.9 02:43:27 10° ENE 02:45:31 12° E 02:47:35 10° ESE visible
14 Dec 3.0 04:20:14 10° NNE 04:25:21 81° ESE 04:30:27 10° SSW visible
14 Dec 4.3 06:00:23 10° NNW 06:03:46 18° WNW 06:07:08 10° W visible
14 Dec 4.1 15:39:17 10° S 15:44:13 51° W 15:49:11 10° NNW visible
15 Dec 4.2 03:43:34 10° NNE 03:48:22 40° E 03:53:08 10° SSE visible
15 Dec 3.6 05:22:47 10° N 05:27:18 33° WNW 05:31:47 10° SW visible
15 Dec 5.9 16:43:54 10° SW 16:46:57 16° W 16:50:01 10° NW visible
16 Dec 5.3 03:07:24 10° NE 03:11:10 20° E 03:14:55 10° SE visible
16 Dec 2.9 04:45:35 10° N 04:50:38 63° WNW 04:55:39 10° SSW visible
16 Dec 4.7 06:26:49 10° NNW 06:28:41 12° NW 06:30:33 10° WNW visible
16 Dec 5.0 16:05:11 10° SSW 16:09:41 31° W 16:14:13 10° NNW visible
17 Dec 3.3 04:08:41 10° NNE 04:13:47 66° ESE 04:18:49 10° S visible
17 Dec 4.1 05:48:32 10° N 05:52:21 22° WNW 05:56:09 10° WSW visible
